Theta_e
322 321 320 318 317 317 315 313 311 309 308 307 307 307 307 307 307 307 307 307 307 308 307 307 308 309 301 290 289 300 312 308 307 304 297 294 292 292 292 290 290 287 289 291 293 293 293
321 320 319 318 318 317 315 313 310 309 308 307 307 306 306 306 306 306 306 307 307 307 307 307 308 308 297 284 297 301 301 302 301 300 297 295 292 292 288 287 288 292 290 290 292 294 295
321 320 319 317 317 316 315 313 311 308 308 307 306 305 305 305 305 306 306 306 306 307 307 308 308 305 296 292 301 302 302 301 301 299 295 297 294 290 289 286 290 290 285 287 289 291 293
321 320 319 317 316 314 313 312 310 308 308 307 305 305 304 304 305 305 306 306 307 308 308 308 308 303 292 304 302 303 301 300 301 300 298 298 297 292 289 290 288 285 284 279 287 290 292
321 320 318 317 315 313 312 311 310 308 307 306 305 304 304 305 305 305 306 306 308 309 309 309 301 297 291 308 302 302 298 297 296 296 295 300 294 289 287 282 280 280 277 280 283 288 290
321 320 318 317 315 313 312 311 308 308 307 305 304 304 304 304 305 306 306 307 306 306 307 306 303 292 295 292 297 298 297 297 293 293 291 289 287 284 282 280 276 278 277 278 278 284 288
321 320 318 317 314 313 311 309 308 307 306 304 303 303 304 304 305 306 303 294 288 287 290 285 289 289 290 293 296 294 296 294 292 288 282 285 280 276 279 283 285 284 282 280 282 286 285
320 319 318 315 314 312 310 309 308 307 305 304 303 302 303 304 305 306 296 290 290 290 284 290 291 290 293 293 289 292 295 289 289 283 287 284 279 285 286 285 283 283 282 281 284 287 286
319 317 316 314 313 311 309 308 307 305 304 303 302 302 303 304 305 297 292 292 296 295 283 288 292 291 293 293 288 287 293 292 288 285 285 282 284 289 287 284 282 281 279 282 283 286 285
317 315 314 313 312 310 308 307 306 304 303 302 302 303 304 304 296 292 292 298 297 296 277 284 289 293 293 292 287 294 294 291 289 284 285 284 288 288 287 285 285 279 285 285 286 284 276
315 314 312 311 310 308 308 306 304 304 303 303 303 303 304 304 291 291 295 298 298 293 272 286 287 295 293 288 289 289 295 292 285 285 286 282 284 285 283 285 288 283 287 287 285 283 279
313 312 310 309 308 307 306 304 304 303 303 303 303 303 304 299 293 294 297 297 294 278 272 282 287 286 286 288 288 290 291 293 291 286 286 285 290 288 287 288 289 289 288 288 286 282 272
311 310 308 307 306 305 305 303 303 303 302 302 302 303 302 300 292 296 297 292 277 272 284 281 282 286 285 284 286 288 287 285 281 278 278 284 285 288 290 285 288 286 283 275 271 271 275
309 307 306 306 305 304 303 302 302 302 302 302 303 303 300 299 297 297 293 284 275 280 280 285 285 285 281 284 285 286 284 282 288 284 281 276 276 283 286 285 281 282 283 277 271 274 277
307 305 304 304 303 302 302 302 302 302 302 302 303 295 294 297 298 296 285 274 277 280 284 285 284 281 280 283 283 283 283 284 288 290 281 280 279 287 291 292 289 285 280 286 280 283 278
303 303 303 303 302 301 301 301 302 301 302 302 292 293 294 298 299 292 282 280 282 287 289 287 279 282 274 280 277 281 283 288 289 293 293 287 281 288 290 292 293 289 290 280 280 275 274
302 302 303 303 301 301 302 301 301 302 302 301 292 289 295 298 296 285 275 279 285 290 290 285 282 280 279 277 280 281 283 288 292 291 293 290 287 283 288 286 286 287 284 285 286 284 277
302 303 302 302 301 301 301 301 302 302 302 296 292 284 294 296 283 280 278 285 290 288 290 287 286 285 280 280 282 281 281 286 292 292 288 292 286 280 284 291 295 291 286 286 278 279 284
302 302 301 301 301 301 301 302 302 302 301 293 288 287 293 294 278 277 284 287 288 286 286 285 283 285 284 276 275 278 283 291 292 290 288 292 286 279 282 288 292 288 290 289 288 287 280
303 302 301 301 300 300 301 301 302 302 301 294 288 280 285 289 285 283 282 283 283 288 286 287 285 284 280 275 281 277 281 289 291 291 296 294 287 283 278 282 287 286 289 290 287 280 279
302 302 302 301 300 301 301 301 301 302 301 293 286 281 286 278 281 282 284 284 281 280 285 285 281 282 279 272 276 276 281 286 289 292 290 291 283 284 284 285 285 285 289 287 285 284 279
302 302 301 301 300 300 300 301 301 301 300 291 284 284 283 283 286 283 283 282 281 281 282 280 281 284 282 280 280 278 282 284 283 288 287 290 284 285 282 284 283 280 283 284 283 282 281
301 301 301 301 299 300 300 300 301 301 298 290 290 289 285 283 281 280 280 282 282 284 286 286 284 282 281 283 286 287 287 287 288 286 285 285 284 283 280 285 284 276 280 281 282 284 285
301 300 300 300 299 299 299 300 300 301 299 293 290 288 283 279 281 281 285 284 284 285 283 286 285 283 287 290 290 289 288 288 289 289 289 286 285 284 280 283 272 280 285 285 282 283 284
301 300 300 300 299 299 299 300 300 301 300 294 292 288 284 279 283 285 285 284 284 285 284 285 286 288 289 287 284 282 282 283 287 289 288 289 286 283 279 277 279 280 281 281 281 279 284
301 301 300 301 300 299 299 299 300 301 301 295 292 291 287 282 282 288 283 284 280 280 281 284 289 289 287 283 280 278 277 281 280 283 289 288 287 284 282 276 272 278 282 286 286 275 285
300 300 301 300 300 300 299 299 300 301 301 295 292 292 288 282 286 286 282 282 284 282 280 282 284 285 285 277 277 277 278 285 277 279 280 281 281 278 279 276 277 280 283 288 277 276 286
300 300 300 300 299 299 299 300 300 301 301 295 292 294 289 282 285 289 290 285 284 282 277 282 279 282 279 276 277 277 277 281 282 283 282 279 278 276 278 274 272 283 283 279 282 284 285
300 300 300 300 299 299 299 300 301 301 301 297 290 295 292 286 284 289 291 292 291 289 284 286 286 284 283 277 281 279 278 280 280 275 286 277 280 278 278 276 282 284 283 285 285 281 280
Wind_Speed
27 25 23 22 21 20 20 18 16 13 11 8 6 5 6 8 11 13 15 16 16 15 15 13 12 12 6 5 8 5 9 10 5 4 3 3 3 1 3 4 5 14 11 15 14 17 15
29 28 26 25 24 23 23 20 17 14 12 10 8 5 6 8 11 13 15 17 17 16 14 11 8 6 2 4 1 6 11 9 3 1 2 2 3 4 5 6 7 10 20 21 22 19 10
32 31 28 27 26 25 22 19 17 16 14 10 8 6 7 8 11 14 15 17 17 17 14 9 4 2 2 11 4 7 6 4 3 3 3 4 5 4 2 5 5 6 16 18 21 11 13
34 33 32 29 28 26 23 20 18 15 13 11 8 6 6 7 11 14 17 18 20 19 15 7 4 2 7 6 5 10 4 3 5 7 4 8 6 5 5 5 5 7 6 9 3 11 10
36 35 33 31 30 27 24 21 18 15 13 10 8 6 7 8 11 14 18 19 21 12 3 12 6 3 9 6 5 7 4 3 7 3 4 6 4 6 3 1 6 4 13 15 24 7 12
36 35 34 32 31 28 26 22 18 16 13 10 7 6 6 9 12 13 17 18 10 3 9 5 5 1 5 4 6 6 4 5 5 3 3 1 1 2 3 3 14 11 8 11 13 10 11
37 37 35 34 31 27 27 23 20 16 14 11 8 5 7 9 13 14 10 4 6 2 3 3 3 3 6 7 6 6 6 2 4 3 2 3 1 4 14 9 12 14 15 19 19 18 21
39 38 36 34 31 30 25 21 19 17 14 11 6 2 5 10 12 15 1 6 3 4 6 2 4 6 7 4 6 9 3 2 1 5 1 1 7 16 8 12 12 16 15 19 21 23 14
40 39 37 34 32 30 28 26 19 16 13 9 4 1 5 9 13 3 3 4 2 5 2 7 5 5 4 7 6 6 4 3 7 4 6 7 11 9 13 13 12 15 17 20 18 21 14
41 39 39 37 35 31 28 25 23 13 9 7 3 1 4 10 4 1 2 3 2 3 5 1 1 2 2 6 5 10 4 5 1 3 4 9 5 6 8 13 12 19 12 15 16 16 14
43 42 41 38 35 32 27 24 19 17 12 6 3 1 5 3 4 2 2 3 3 2 2 5 1 1 5 1 9 3 3 1 5 7 3 11 7 8 14 17 10 17 11 11 21 16 9
42 43 43 38 35 33 28 24 19 16 10 6 2 2 4 6 0 1 1 2 4 6 2 4 3 6 9 4 4 5 3 2 4 6 8 23 16 10 21 18 12 11 3 8 13 6 5
41 39 37 37 35 31 29 24 19 15 9 4 2 1 2 1 4 2 1 4 5 4 4 4 4 7 7 8 7 6 7 7 1 8 5 8 7 9 15 13 12 5 3 3 4 1 6
39 43 41 37 35 30 27 24 19 13 8 5 4 2 4 3 3 2 3 3 3 3 2 2 4 6 5 8 5 9 6 5 6 4 5 3 9 3 3 9 8 8 8 5 4 4 4
36 32 36 33 32 29 25 21 16 11 9 5 2 1 3 2 5 2 6 4 5 3 1 3 3 4 5 3 2 7 5 4 2 1 4 4 6 4 3 1 6 4 7 10 5 6 3
32 33 29 27 28 27 23 18 14 12 9 6 4 2 2 4 6 4 5 3 4 2 3 4 3 0 3 6 6 6 6 3 6 6 8 4 7 3 5 5 7 7 1 1 1 3 6
27 28 28 27 25 23 21 18 15 12 9 8 3 2 1 5 4 5 4 4 3 1 4 4 3 1 4 4 4 5 4 9 6 10 11 7 4 8 8 5 5 2 2 5 3 1 3
23 24 25 25 23 21 20 18 14 12 10 5 4 2 2 2 4 2 3 4 2 3 3 3 3 4 6 2 4 3 4 6 8 13 10 3 4 5 5 11 7 3 5 5 4 3 3
20 23 23 21 20 18 17 15 12 10 11 4 4 3 2 3 4 0 3 0 3 2 2 3 2 5 2 3 2 4 6 8 13 10 4 3 2 7 3 2 4 4 3 4 6 2 4
20 23 21 21 19 17 16 14 12 8 8 3 4 3 3 3 1 5 3 1 2 1 2 3 3 3 2 2 3 5 5 8 15 5 13 1 3 6 5 4 7 5 5 9 7 5 3
21 21 19 18 19 16 15 13 10 7 7 4 3 2 4 3 2 3 2 2 2 1 1 2 2 2 3 2 4 5 4 8 9 4 7 3 5 11 20 16 20 16 4 11 15 9 5
18 19 17 17 17 14 13 11 9 6 6 3 4 4 3 3 4 5 1 4 3 2 3 3 1 5 3 4 8 7 4 2 7 8 6 3 1 3 7 11 26 24 24 18 22 15 12
20 21 18 17 17 15 12 10 8 5 2 2 0 2 4 2 3 4 4 4 4 2 1 2 1 2 2 9 8 17 12 9 9 6 4 4 3 2 4 6 7 15 17 17 17 17 5
21 21 20 19 17 16 12 9 6 5 2 3 2 3 4 1 3 4 4 3 0 0 2 1 2 1 5 9 14 5 5 8 8 7 10 6 5 2 1 2 7 2 11 10 20 16 12
19 18 19 19 16 15 13 9 7 6 4 4 3 3 3 3 1 5 5 3 2 4 4 1 3 3 8 6 5 5 5 5 1 5 8 6 1 2 3 6 5 4 8 7 7 10 12
18 18 17 18 15 13 13 10 8 7 8 4 3 2 4 6 2 1 3 2 1 2 5 3 5 4 5 3 4 3 3 4 5 9 5 6 12 3 2 4 3 4 12 9 6 6 9
19 18 19 18 16 15 13 10 8 8 8 5 3 2 4 4 2 2 2 3 2 2 0 4 6 7 4 4 4 3 2 4 4 5 6 6 4 7 4 4 4 11 12 4 1 1 5
21 19 19 18 16 14 12 10 8 9 9 5 1 3 4 3 2 1 1 2 1 3 3 4 5 4 4 5 2 2 2 2 2 2 4 5 4 4 3 4 3 14 2 3 6 5 5
21 19 20 18 16 15 13 10 9 10 9 5 3 2 2 4 3 2 4 3 4 6 5 2 2 1 2 3 1 2 2 3 2 3 5 5 3 2 5 4 4 6 10 7 4 4 3
Wind_Direction
205 208 204 201 202 199 201 196 196 203 200 210 224 247 281 297 307 308 311 311 309 308 313 321 323 335 3 11 260 296 4 353 340 342 315 296 248 216 228 247 285 258 281 278 292 284 290
206 205 203 200 199 196 197 199 195 198 207 208 222 248 271 295 302 305 307 307 307 307 308 311 318 345 39 325 266 0 342 333 3 152 231 152 239 262 266 231 249 313 304 295 290 283 283
206 203 200 201 194 194 195 193 196 195 199 209 226 234 275 295 303 305 307 307 304 300 299 301 321 14 327 245 314 312 279 218 226 206 258 223 195 151 341 328 256 273 306 304 282 289 265
206 203 199 197 191 191 190 189 188 198 198 206 224 249 266 289 301 308 310 310 302 301 297 273 194 162 253 257 279 296 234 205 216 223 204 248 219 207 179 233 322 303 289 300 341 335 305
207 201 199 192 188 186 188 178 183 193 199 208 222 244 281 300 308 316 313 312 305 313 104 135 120 141 270 302 276 264 213 263 303 265 226 249 158 203 145 231 303 186 268 275 295 284 274
208 200 197 192 187 182 175 171 180 184 202 199 225 258 287 311 320 321 318 308 295 108 107 142 118 295 276 286 283 301 254 241 231 283 15 32 229 154 63 144 248 258 250 266 268 291 310
206 197 194 186 183 178 172 177 167 186 190 200 207 250 305 324 322 326 339 14 21 358 62 208 197 261 296 286 284 248 263 262 161 98 167 235 252 269 233 229 256 267 264 265 265 264 272
203 194 188 177 174 168 172 173 170 178 184 200 184 278 317 320 324 322 77 79 150 184 321 264 240 270 262 247 280 288 92 8 328 246 240 322 220 238 244 262 264 264 263 267 275 266 273
196 184 176 170 166 165 166 165 171 181 177 188 175 185 317 323 316 27 86 91 30 123 96 295 201 216 234 177 274 279 186 185 217 204 203 208 252 282 250 246 253 262 253 261 265 289 277
183 176 168 163 160 159 162 158 162 173 170 196 184 138 326 323 77 258 96 20 84 122 70 296 232 256 12 294 284 303 197 201 353 289 267 250 269 230 240 242 231 259 262 274 281 292 276
175 170 161 157 153 151 157 151 155 156 182 187 202 26 340 330 156 135 106 15 127 49 35 342 221 98 321 206 267 323 340 120 230 260 249 248 272 271 272 254 229 257 253 243 265 265 269
167 162 154 150 145 144 146 150 152 155 161 190 172 345 359 96 165 212 351 96 64 51 247 338 341 334 340 280 286 291 328 340 269 272 232 265 268 256 253 270 252 249 246 258 242 241 246
153 146 139 137 140 142 143 142 142 150 152 158 279 269 312 145 162 169 120 69 67 128 7 325 319 340 332 314 313 357 328 328 28 348 341 310 277 262 243 254 273 204 100 304 338 40 247
142 140 136 136 135 136 136 142 150 149 145 187 244 332 255 212 155 52 74 69 119 110 234 249 339 325 329 343 329 335 309 343 26 220 294 311 323 221 191 198 202 201 173 194 258 221 258
121 120 121 131 137 134 136 140 135 150 172 178 43 243 237 243 162 102 82 76 153 194 232 8 359 14 315 301 329 336 298 295 281 91 234 296 268 292 155 254 169 265 197 217 281 290 330
95 105 115 129 131 132 135 133 153 165 175 139 136 194 235 132 130 71 80 145 150 146 116 71 99 258 288 314 359 355 319 345 298 307 337 261 289 267 277 261 221 202 280 78 303 239 231
121 128 133 127 123 126 139 150 165 165 153 151 103 131 257 127 83 59 134 209 129 133 129 114 165 212 241 274 281 327 301 297 241 304 315 265 229 276 294 238 239 136 294 211 183 124 324
135 126 124 124 129 144 144 155 156 154 147 108 122 106 315 78 73 60 152 197 186 133 80 108 137 183 203 243 289 316 251 274 297 311 299 249 270 282 286 279 286 206 225 169 130 257 69
135 125 124 131 136 136 142 137 142 156 173 157 99 122 334 89 123 319 274 210 133 145 147 149 206 189 204 183 28 202 263 269 290 316 306 320 321 300 281 351 94 288 316 90 112 121 53
126 134 137 140 141 141 140 136 147 150 156 110 101 94 349 50 88 135 152 90 104 308 195 176 196 90 58 323 234 273 277 294 316 273 315 279 303 276 265 330 255 239 197 58 97 65 52
136 141 141 141 143 144 135 131 131 146 165 92 33 190 175 198 291 154 132 122 136 47 298 78 7 180 163 335 307 225 265 299 299 309 345 95 357 44 45 16 51 47 127 115 95 75 46
142 142 139 142 140 139 129 140 143 143 137 96 126 123 42 121 127 130 73 192 170 302 184 310 123 292 200 227 201 278 226 230 259 327 334 329 322 323 45 37 46 48 42 62 79 91 93
148 148 146 147 144 147 150 148 129 140 131 107 34 46 99 339 108 100 211 173 205 227 63 85 276 284 233 240 238 263 256 245 257 301 289 300 315 352 45 4 309 49 29 47 55 38 44
152 154 159 149 153 157 152 139 128 110 131 118 109 99 90 158 141 185 170 169 132 176 208 351 2 15 258 305 294 251 222 223 227 284 219 302 345 64 92 265 44 63 18 47 63 46 60
161 161 154 156 156 151 148 144 126 120 99 85 107 103 104 95 76 50 75 85 356 346 18 285 289 259 304 310 3 6 349 15 105 65 22 0 302 90 70 57 122 59 14 341 18 49 37
167 159 158 155 152 147 148 147 134 124 109 83 72 101 93 115 308 300 92 39 150 325 345 311 307 310 13 51 45 52 23 332 325 337 355 3 14 83 85 74 89 47 333 322 295 59 34
168 165 161 155 151 149 149 145 139 121 98 95 73 59 89 104 273 85 142 175 126 91 222 310 335 344 6 24 60 40 347 321 7 8 337 345 11 32 15 98 96 356 322 311 315 56 76
172 169 160 154 148 149 152 151 131 122 115 83 99 20 106 109 282 19 6 124 70 82 127 274 36 341 11 56 62 330 11 2 351 50 343 23 348 20 341 66 50 353 45 74 101 68 64
169 164 159 149 149 154 147 138 122 125 110 101 87 14 44 91 197 287 264 234 177 180 147 295 120 137 172 70 306 76 1 355 350 8 9 43 40 56 17 82 76 13 54 51 72 97 43